Regional Weather Roundup
Issued by NWS New Orleans/Baton Rouge, LA

Home | Current Version | Previous Version | Text Only | Print | Product List | Glossary On
Versions: 1 2 3 4 5 6 7 8 9 10 11 12 13 14 15 16 17 18 19 20 21 22 23 24 25 26 27 28 29 30 31 32 33 34 35 36 37 38 39 40 41 42 43 44 45 46 47 48 49 50
000
ASUS44 KLIX 280710
RWRLIX
NEW ORLEANS REGIONAL WEATHER ROUNDUP
NATIONAL WEATHER SERVICE NEW ORLEANS LA
100 AM CST SAT FEB 28 2015

NOTE: "FAIR" INDICATES FEW OR NO CLOUDS BELOW 12,000 FEET WITH NO
      SIGNIFICANT WEATHER AND/OR OBSTRUCTIONS TO VISIBILITY.
      SKY/WX - SKY CONDITION AND SIGNIFICANT WEATHER.
      TMP - AIR TEMPERATURE.     DP    - DEWPOINT TEMPERATURE.
      RH  - RELATIVE HUMIDITY.   PRES  - PRESSURE.
      HI  - HEAT INDEX.          WCI   - WIND CHILL INDEX.

*  THESE STATIONS ARE NOT NWS OR FAA STATIONS AND ARE NOT UNDER
   NWS QUALITY CONTROL.

LAZ038-040-048-061>063-065>067-069-280800-
SOUTHEAST LOUISIANA

CITY           SKY/WX    TMP DP  RH WIND       PRES   REMARKS
N.O. AUDUBON     N/A     44  33  65 MISG        N/A
N.O. INTL ARPT MOCLDY    45  31  58 NE10      30.39F
N.O. LAKEFRONT CLEAR     48  32  53 NE18      30.39F
SLIDELL        CLEAR     34  31  88 N6        30.39F WCI  29
BATON ROUGE    CLEAR     35  29  78 NE5       30.41F WCI  31
BOOTHVILLE     PTCLDY    50  41  71 NE9G17    30.35F
BELLE CHASSE   PTCLDY    44  31  60 NE8       30.38S
BOGALUSA*        N/A     36  29  77 N5        30.44R WCI  32
GALLIANO*      SUNNY     41  35  80 N5        30.38S
NEW ROADS*       N/A     32  27  82 N5        30.43F WCI  27
GONZALES*        N/A     39  32  74 NE3       30.40S
HAMMOND*       CLEAR     36  30  80 CALM      30.42S
HOUMA*         CLEAR     39  34  82 N7        30.38S HAZE    WCI  34
PORT FOURCHON* MOSUNNY   46  37  71 N13       30.39F

$$

MSZ070-080>082-280800-
SOUTHERN MISSISSIPPI

CITY           SKY/WX    TMP DP  RH WIND       PRES   REMARKS
MCCOMB         CLEAR     35  27  72 N6        30.41F WCI  30
GULFPORT       CLEAR     41  27  57 NE10      30.38F
BILOXI         PTCLDY    41  29  63 NE10      30.38S
PASCAGOULA     CLEAR     39  28  64 N8        30.38F WCI  33

$$

COASTAL OBSERVATIONS
LAKE AND NEARSHORE STATIONS

STATION/POSITION TIME  TEMP    WIND        PRES    WAVE
                       AIR SEA DIR/SP/G            HT/PER
                 (UTC) (F)     (DEG/KT/KT) (MB)    (FT/S)
PASCAGOULA       0700   43      30/ 11/ 14 1028.0
WAVELAND YACHT   0700   43 48   40/ 13/ 15 1028.4
GRAND ISLE       0600           40/ 10/ 16   N/A
SOUTHWEST PASS   0700   52 47   20/ 12/ 13 1027.2
NEW CANAL        0600   46      50/ 14/ 16 1029.1
SHELL BEACH      0700   47 50   40/ 18/ 19 1028.1

OFFSHORE STATIONS

STATION/POSITION TIME  TEMP    WIND        PRES    WAVE
                       AIR SEA DIR/SP/G            HT/PER
                 (UTC) (F)     (DEG/KT/KT) (MB)    (FT/S)
64 S DAUPHIN ISL 0617   56 69   50/ 21/ 29 1026.9    6/ 6

$$



USA.gov is the U.S. government's official web portal to all federal, state and local government web resources and services.